Theta_e
341 341 342 343 344 343 342 342 342 343 342 342 342 341 342 340 339 340 341 341 341 341 341 340 340 340 339 340 340 339 337 335 334 332 330 333 330 331 339 338 337 337 338 337 335 329 326 322 328 337 339 340 340 339 339 339 339 340 339 341 338 336 338
343 343 343 343 342 343 341 342 341 341 342 341 342 342 341 339 340 340 340 340 340 342 339 340 340 340 339 338 337 336 334 335 335 335 332 330 331 333 336 335 337 336 336 336 336 335 328 324 323 327 331 338 338 339 338 339 341 340 342 340 339 338 338
342 342 343 342 342 343 341 341 341 341 341 341 341 342 341 341 340 341 341 341 341 340 339 339 339 339 339 338 337 336 336 335 334 334 332 332 334 335 338 338 334 334 334 333 331 331 331 329 324 326 330 329 329 334 337 336 339 343 341 340 337 339 340
341 341 341 341 341 342 340 340 340 340 341 340 341 341 341 341 341 341 340 340 340 341 340 339 338 339 339 338 337 336 335 334 333 333 333 334 334 338 339 338 335 334 331 330 329 330 330 327 326 326 329 331 331 329 333 336 338 341 341 342 341 339 340
342 340 341 340 340 339 340 340 341 341 340 341 341 340 340 341 341 339 338 338 339 340 340 340 340 340 340 338 338 336 336 339 339 339 339 339 339 339 339 338 337 336 334 333 336 335 332 330 330 328 326 331 331 330 334 335 339 339 339 339 340 341 340
343 342 341 341 340 339 339 340 340 339 340 339 339 339 340 341 341 340 340 340 340 340 340 340 341 340 340 338 338 338 337 337 337 337 336 337 339 338 337 339 339 337 336 338 338 336 336 335 332 327 329 332 328 327 331 333 333 337 339 339 341 342 341
343 342 342 341 342 340 341 340 340 340 339 339 339 340 341 341 341 341 341 341 339 340 340 339 339 340 338 337 339 339 338 339 339 337 336 337 338 339 340 338 338 337 337 340 338 336 336 333 330 329 327 326 329 328 331 331 335 333 335 339 340 342 342
343 343 342 343 344 342 342 342 341 341 340 340 339 341 342 341 341 341 341 340 340 339 338 339 339 339 339 338 339 339 339 340 340 339 337 337 338 338 339 338 338 337 337 338 337 335 337 335 333 333 329 322 324 327 326 330 331 334 332 336 339 340 341
343 343 343 343 345 347 344 342 343 343 342 342 341 341 341 341 340 340 340 341 339 339 339 339 340 340 339 338 338 338 338 341 340 339 337 337 337 338 338 339 338 336 337 337 336 336 338 338 337 336 333 327 323 320 325 323 326 329 336 333 337 341 339
338 342 342 342 343 344 345 345 344 344 344 343 342 342 341 340 340 340 339 339 337 337 339 339 338 338 338 339 338 338 338 340 340 339 339 338 338 338 338 338 338 337 338 338 338 339 338 338 337 336 336 328 326 324 320 321 324 326 330 335 331 336 337
333 337 342 342 343 343 343 345 345 344 343 344 343 342 342 340 340 341 339 338 338 338 338 338 337 337 338 337 337 338 339 340 339 337 338 338 336 338 338 338 339 337 339 339 338 337 337 339 338 336 336 335 332 326 325 322 323 330 330 336 334 332 335
333 333 338 340 343 342 341 343 343 343 344 344 343 342 341 340 339 339 339 337 338 339 338 337 337 336 337 335 336 337 339 339 336 335 336 336 334 335 336 337 338 338 339 338 338 338 338 338 337 337 336 336 333 332 327 328 322 327 335 327 336 338 335
333 333 332 332 334 338 340 341 341 343 343 343 342 342 341 340 339 339 338 338 339 338 337 337 336 335 335 334 335 336 338 338 336 334 334 336 334 335 337 336 337 337 338 337 337 337 337 337 336 336 337 335 334 334 333 327 324 324 332 331 335 338 336
333 333 333 334 334 335 337 337 340 343 343 342 342 342 341 340 338 339 338 338 337 337 336 337 336 333 333 334 336 336 337 336 334 333 334 333 334 335 337 336 336 337 337 336 336 337 336 337 337 338 338 336 332 333 332 329 326 326 333 338 333 333 334
330 332 332 333 331 330 333 334 336 341 341 341 341 339 340 340 339 339 338 337 337 336 337 336 336 334 334 334 335 337 336 335 334 333 335 333 334 336 337 336 335 335 336 336 336 334 335 336 336 336 336 334 332 330 332 329 329 327 325 332 333 337 335
329 330 332 332 331 331 332 333 334 337 337 338 339 339 339 340 338 338 337 337 337 337 336 336 337 336 335 335 334 335 336 336 335 334 335 335 335 336 336 335 334 335 338 336 336 335 336 336 336 336 335 334 333 332 333 333 332 329 327 329 334 332 332
329 331 331 331 332 332 333 332 334 335 335 334 335 337 341 341 338 338 337 336 336 336 336 337 337 337 336 335 334 335 335 335 335 335 334 333 334 336 334 333 334 336 338 335 335 335 336 337 335 334 333 335 332 331 334 334 332 332 331 329 330 330 332
327 329 330 332 332 333 334 333 334 335 335 333 333 335 337 339 339 338 338 337 336 336 336 336 336 336 335 335 335 335 335 334 335 333 332 333 335 334 335 335 336 336 336 335 335 335 335 334 334 334 334 334 333 332 333 334 331 332 332 329 330 334 335
330 330 331 331 333 334 334 334 333 332 334 334 334 335 335 337 338 337 337 335 336 336 336 337 336 336 335 336 335 335 336 334 334 333 332 334 334 336 335 335 337 335 336 335 335 335 335 334 335 335 333 333 333 332 331 332 331 331 331 329 330 330 329
328 330 333 333 334 335 334 334 333 332 335 336 335 335 333 335 337 338 337 337 336 336 336 337 336 336 336 336 336 336 335 334 334 334 335 336 337 337 336 337 337 336 337 336 337 337 336 335 336 334 333 333 333 330 330 330 331 331 329 329 329 329 328
331 330 330 331 334 334 334 333 332 333 333 333 334 333 333 334 336 336 336 337 336 336 336 336 336 336 337 336 336 336 334 333 333 334 336 336 337 336 335 336 336 337 337 338 338 338 337 336 336 333 335 335 333 330 329 330 330 330 329 328 329 325 326
329 331 330 329 331 332 331 330 332 331 331 332 332 332 334 332 333 335 336 338 334 334 335 335 336 336 336 336 337 335 334 334 334 335 335 335 337 336 335 337 337 337 339 341 341 340 340 340 338 335 336 335 332 328 328 328 329 329 329 330 328 327 325
329 329 328 327 328 330 330 331 331 331 331 332 332 333 333 334 332 332 334 334 335 336 337 339 336 329 329 336 336 336 335 335 336 336 335 336 336 335 336 337 338 341 342 343 340 332 326 329 336 339 338 334 331 328 327 328 329 327 327 327 327 327 325
321 326 327 329 328 328 329 330 329 331 331 330 331 333 333 332 331 332 331 331 333 333 333 332 314 310 313 321 335 335 334 335 336 336 336 335 333 334 336 338 339 341 342 342 336 324 320 322 320 321 324 332 334 330 328 328 329 327 327 327 328 328 326
322 326 328 326 327 327 329 329 328 328 327 328 331 331 331 329 330 331 332 332 332 332 330 318 307 305 305 308 323 337 337 337 336 337 336 336 333 334 336 337 339 340 340 340 337 330 326 319 315 315 314 313 312 311 322 329 329 327 328 327 326 327 328
323 322 323 324 328 328 327 327 327 326 327 329 329 330 330 330 330 331 330 331 331 330 330 314 306 310 310 305 304 331 337 334 335 334 333 335 333 336 337 337 337 339 339 343 341 338 336 326 318 317 318 317 314 309 304 313 319 331 329 329 327 327 328
321 321 324 323 325 326 326 326 327 329 329 329 327 327 328 329 330 330 331 330 330 330 329 314 302 304 307 308 303 316 331 331 332 332 330 331 332 335 337 336 337 338 339 340 339 338 338 335 330 328 329 330 332 323 309 307 312 316 326 333 331 328 330
317 318 320 324 323 325 327 327 327 328 329 330 328 328 328 328 329 330 329 330 330 329 329 307 303 303 301 302 301 317 332 333 333 333 332 333 331 329 335 336 337 338 339 339 339 338 338 338 335 333 333 333 334 333 326 324 326 328 331 337 336 335 334
317 316 319 321 321 321 321 323 328 330 330 331 329 328 327 329 328 328 328 330 331 329 323 297 300 300 301 302 301 327 330 333 330 330 331 333 331 330 330 330 331 331 332 334 330 322 331 337 336 335 334 334 335 335 335 335 321 323 336 337 335 331 332
316 317 318 318 317 318 320 321 322 323 330 329 329 329 327 327 329 329 329 330 330 329 328 304 298 299 299 299 312 334 334 333 333 335 332 330 329 328 330 330 329 333 335 334 320 309 313 329 334 330 330 331 333 334 334 324 307 306 310 314 315 313 313
315 316 317 316 316 318 319 319 322 322 319 321 327 329 330 330 330 330 330 329 329 328 329 312 298 297 298 296 313 332 333 333 333 332 332 331 332 333 333 336 335 335 333 330 306 306 306 325 331 331 330 331 328 331 333 334 328 316 299 302 305 306 306
315 318 315 316 318 316 317 319 322 324 321 324 321 318 325 328 329 330 330 330 331 330 328 311 297 296 296 299 318 331 333 330 329 329 329 332 333 331 333 334 333 329 333 315 297 302 301 324 333 333 332 328 328 330 333 334 331 327 326 326 324 322 321
318 316 314 316 316 316 317 318 318 317 318 314 316 317 315 320 327 327 329 329 330 332 330 322 305 296 296 299 306 330 331 330 327 326 328 329 330 332 333 334 322 299 298 298 299 297 297 306 330 331 332 328 328 330 334 333 331 330 329 329 329 330 331
314 316 314 314 314 318 318 316 316 316 314 315 316 315 319 319 324 326 328 328 331 332 331 322 307 296 297 298 301 317 327 327 325 325 326 327 328 328 330 331 325 303 299 298 297 297 297 300 310 330 331 332 332 333 328 332 331 333 330 329 330 331 332
314 315 313 314 314 313 317 317 315 317 315 315 314 314 316 316 318 320 321 323 327 330 333 325 312 297 296 296 298 304 326 328 326 327 325 327 329 330 330 332 323 302 297 299 298 297 296 300 302 324 330 315 305 308 329 332 330 330 330 330 329 329 331
313 313 314 315 313 313 315 316 315 315 316 317 316 315 315 318 317 318 325 328 322 328 328 322 310 308 297 297 296 298 300 316 305 327 327 328 329 328 328 328 318 304 295 297 299 298 297 296 305 317 307 305 301 301 317 330 328 326 326 327 328 329 329
312 313 314 315 314 314 314 314 315 316 317 317 317 316 317 317 317 317 317 321 323 323 327 323 311 307 304 296 295 298 296 298 302 320 328 329 328 328 328 324 312 297 299 297 297 298 297 302 313 306 304 301 299 305 328 328 325 326 324 325 325 326 328
Wind_Speed
10 9 11 9 8 8 9 10 8 8 10 10 9 9 9 7 7 8 8 8 7 6 7 7 7 6 5 5 6 6 5 5 6 6 4 4 6 6 4 4 3 3 2 2 0 1 2 1 1 1 2 2 3 4 2 1 1 3 5 5 7 4 4
9 9 8 8 9 9 10 9 9 9 9 9 9 9 9 9 9 9 10 9 8 7 7 7 6 6 7 7 7 6 7 7 6 6 6 5 9 7 4 2 2 2 2 1 1 1 1 2 2 2 1 2 2 2 3 4 3 3 3 7 6 7 4
9 9 9 10 10 9 10 10 9 9 9 8 9 10 9 10 10 9 9 9 9 9 8 8 8 8 7 6 6 6 6 6 7 6 7 7 8 7 4 2 3 3 2 2 1 2 1 1 1 1 1 1 0 1 1 3 0 4 4 6 7 8 4
11 9 8 10 10 10 10 10 10 9 9 9 8 8 10 10 9 8 8 7 7 8 8 9 9 8 7 7 7 8 8 8 6 7 8 9 10 7 3 4 4 4 4 3 5 5 3 2 3 2 0 1 1 2 1 1 1 3 4 4 4 5 5
10 9 9 9 11 11 11 10 10 9 9 9 9 8 9 10 9 9 10 9 9 9 9 8 8 8 8 8 7 8 8 7 6 8 8 8 7 5 4 4 4 3 3 2 1 3 5 3 3 2 2 1 1 1 1 1 1 2 2 3 4 4 4
10 9 9 9 9 10 10 10 10 10 9 9 9 10 10 11 9 9 10 9 9 9 9 9 8 9 9 8 8 8 8 8 7 8 6 6 6 6 5 5 4 4 4 4 3 3 3 3 4 2 1 1 1 2 2 2 1 1 1 2 4 5 4
9 9 8 8 8 8 7 9 9 9 9 10 10 10 10 11 9 9 9 9 9 8 8 9 9 8 8 7 7 8 9 8 7 8 7 6 6 6 5 5 5 5 4 4 4 3 4 4 4 4 4 1 1 1 1 2 2 2 0 1 4 4 5
8 8 8 7 6 7 7 8 8 8 8 8 9 8 10 10 11 9 9 9 10 9 9 9 9 9 8 8 8 9 8 7 7 7 7 7 7 6 5 5 4 4 4 3 4 4 4 4 4 4 6 5 2 1 1 1 1 2 1 4 5 5 4
8 7 6 6 5 4 6 7 7 8 7 7 8 8 9 10 10 10 10 9 10 8 9 9 9 7 7 8 8 7 8 6 7 8 7 7 7 6 6 4 3 4 5 5 4 5 5 4 4 3 6 7 4 3 1 1 1 3 2 4 4 5 5
13 9 7 7 6 5 5 6 6 7 7 7 7 7 9 9 8 9 9 9 10 9 9 8 9 8 8 8 7 8 8 7 6 6 6 7 6 6 5 6 5 5 4 4 5 5 4 4 4 4 4 6 5 3 5 4 4 4 3 2 4 3 5
14 15 10 8 7 7 6 5 6 6 7 7 7 7 8 9 9 10 8 9 9 9 9 8 9 10 9 8 8 7 6 5 5 1 1 2 2 4 6 6 6 5 5 5 4 4 4 3 4 4 4 4 7 6 5 5 4 3 4 2 2 4 6
9 14 13 10 7 7 7 5 5 6 6 6 6 8 8 9 9 9 9 9 8 9 9 9 9 9 9 7 8 7 6 7 6 6 4 4 4 6 7 7 6 6 5 5 5 5 3 3 3 3 4 5 2 2 6 2 4 3 1 4 0 4 7
7 7 8 11 13 10 8 5 6 7 7 6 7 8 8 9 10 10 9 9 10 10 9 8 10 8 8 7 7 7 6 7 7 6 4 4 5 7 8 7 7 6 5 4 4 5 5 4 4 4 4 5 6 5 3 4 5 5 3 3 3 3 7
5 7 8 5 7 9 10 9 6 5 6 7 7 9 10 10 11 11 11 10 10 9 10 9 9 8 9 9 8 7 7 6 6 6 6 7 8 9 7 6 6 7 6 6 5 5 5 5 5 4 3 5 5 5 4 5 6 4 2 1 3 5 7
5 7 7 7 6 9 8 6 10 7 7 7 7 9 11 9 11 11 11 12 11 11 11 10 9 9 8 10 9 7 7 8 7 8 8 9 9 8 7 7 8 7 6 6 5 6 5 5 5 5 4 7 6 5 5 6 4 6 6 2 3 3 6
8 8 7 6 7 8 8 7 7 6 6 7 9 8 9 9 10 11 11 11 11 12 12 11 10 11 11 11 11 9 8 8 9 9 9 9 8 7 6 6 7 5 5 6 6 5 5 5 4 4 5 6 7 6 5 4 4 7 8 5 5 6 5
9 6 6 6 8 8 6 8 7 6 4 5 9 10 7 8 8 10 10 11 11 11 12 11 11 11 11 11 11 10 9 9 9 8 7 7 6 6 6 7 6 5 6 6 6 5 4 4 3 4 4 5 7 1 2 4 4 4 7 7 5 6 5
9 8 6 5 7 7 7 7 6 5 5 7 7 11 7 8 8 9 8 10 10 11 11 11 11 10 10 10 10 8 9 10 8 7 7 7 7 7 8 7 6 6 7 6 6 6 6 6 5 5 5 5 7 6 3 1 3 2 3 8 7 2 1
8 8 7 5 6 7 8 7 6 6 3 5 4 6 9 9 7 9 10 10 10 11 11 10 11 11 11 10 9 9 8 8 8 8 8 9 8 8 6 6 6 6 8 7 6 5 6 7 6 6 5 7 7 7 6 4 4 5 3 3 6 4 2
7 8 7 5 5 5 6 4 4 7 6 3 4 3 8 10 6 9 10 10 10 12 11 11 10 11 11 11 10 9 8 8 8 8 9 8 7 7 6 6 5 5 7 7 6 5 5 5 5 5 5 7 6 5 6 4 5 6 6 4 3 3 6
6 7 7 6 4 3 4 6 10 10 5 4 3 3 6 7 8 7 7 7 6 7 10 11 10 10 9 9 9 9 9 8 9 8 7 7 7 6 6 6 6 7 6 6 5 5 5 5 4 6 5 7 8 6 4 5 4 5 8 7 5 7 3
7 7 6 6 6 4 3 4 7 5 6 5 2 3 5 7 10 7 7 5 6 11 9 9 9 9 9 9 9 9 9 9 9 9 8 8 7 8 7 7 6 6 6 8 9 7 7 6 5 6 6 7 9 7 2 1 5 5 6 6 6 8 5
7 6 5 6 6 5 4 5 6 5 4 3 3 4 3 5 4 8 8 5 4 5 1 4 7 11 10 8 9 7 8 9 9 9 8 8 6 6 7 6 7 11 10 11 10 7 9 8 5 5 5 8 10 8 7 5 4 4 5 6 6 9 10
8 8 6 5 5 8 7 5 4 3 0 1 3 3 3 4 3 3 2 6 6 5 6 9 19 10 10 13 9 8 8 8 9 8 7 7 7 7 7 6 5 8 8 7 8 11 11 13 11 12 11 12 11 12 11 8 6 7 6 6 6 6 6
4 6 4 4 5 6 6 5 4 3 1 2 3 2 2 2 4 4 1 3 4 4 4 8 9 10 14 10 6 8 7 7 5 4 6 6 7 9 8 7 6 6 6 7 7 8 9 11 13 11 12 12 12 9 8 10 7 7 7 7 7 6 6
2 2 7 7 4 5 4 4 5 6 5 5 4 4 5 2 1 2 2 1 2 5 6 9 15 15 12 6 14 1 5 6 3 2 3 3 7 8 8 8 8 7 7 14 9 8 8 8 8 12 11 11 10 11 11 8 8 7 6 6 7 7 7
6 5 1 6 7 2 2 4 5 5 5 5 4 5 6 5 4 4 4 4 2 1 3 3 3 1 5 12 3 4 8 3 1 1 1 6 8 5 8 8 9 7 7 8 6 8 7 7 8 7 7 6 6 8 8 9 10 9 5 5 7 7 8
4 7 9 3 2 2 2 1 1 1 3 4 3 3 4 3 2 3 5 3 3 3 4 7 3 1 4 6 13 2 5 8 6 2 5 4 3 11 6 3 7 7 8 7 6 6 7 8 8 7 6 7 7 9 8 7 5 5 4 4 5 5 7
3 3 3 7 8 6 7 6 1 2 3 5 5 5 5 2 4 5 4 3 2 2 3 7 9 9 7 1 3 9 5 4 6 8 6 2 5 1 7 10 7 7 7 6 6 4 3 6 6 5 7 7 7 7 8 9 14 9 6 4 5 6 5
5 4 4 6 7 8 6 5 5 2 4 5 6 6 7 6 6 6 7 5 3 4 3 3 6 6 6 4 2 0 2 1 3 4 7 4 3 2 2 4 4 2 7 7 9 9 1 4 4 4 2 4 4 5 5 4 5 7 7 9 11 12 11
6 4 4 4 4 4 5 6 1 2 4 2 4 6 6 6 4 4 4 3 2 4 3 4 8 8 7 5 4 3 2 1 2 4 5 3 2 3 4 9 9 6 4 6 11 12 9 10 7 3 4 2 3 5 5 6 5 4 7 6 3 9 13
4 3 6 4 3 3 3 3 1 1 1 2 2 6 6 6 5 4 3 4 7 5 5 4 7 9 8 6 3 2 2 2 2 3 3 6 5 5 4 7 8 7 5 9 10 7 7 7 8 9 7 4 5 5 6 6 6 6 5 4 2 1 1
2 2 5 4 4 4 3 3 4 4 4 6 6 5 5 3 6 4 5 5 4 4 6 5 6 9 7 7 4 3 4 4 3 4 4 2 2 3 3 3 6 11 11 10 9 9 4 6 3 4 7 9 9 7 5 5 4 5 5 6 6 5 4
3 2 4 4 4 3 3 3 5 4 5 5 5 5 4 4 2 5 4 4 5 5 7 7 6 9 8 7 4 4 4 5 5 1 4 2 1 1 3 2 6 8 12 10 10 13 13 10 6 3 4 5 6 5 6 5 6 9 6 6 5 5 6
6 5 4 4 5 4 2 2 3 3 4 5 5 4 4 3 4 3 3 2 4 7 10 12 7 6 9 8 7 2 3 3 3 2 3 0 1 1 2 1 6 5 10 11 10 9 8 11 14 5 6 1 6 6 5 2 4 5 5 6 6 6 5
9 6 6 6 6 5 3 3 3 3 3 3 3 3 3 3 2 3 1 1 4 8 7 7 11 7 6 8 6 3 5 5 2 1 1 2 3 3 2 6 6 7 8 8 8 10 11 8 4 7 7 7 9 12 8 5 4 2 2 3 5 6 6
6 5 6 6 6 5 6 5 4 3 2 2 2 2 2 2 3 3 1 1 3 8 9 7 8 10 7 8 7 5 7 6 2 1 1 2 2 2 4 5 3 3 5 6 8 9 12 8 7 13 12 8 6 5 4 5 5 5 5 4 4 5 6
Wind_Direction
198 190 187 189 186 184 190 190 187 185 193 196 191 197 188 172 176 185 191 194 199 190 190 191 187 184 178 163 166 172 176 187 169 191 222 250 223 228 203 167 190 188 199 240 66 135 118 99 316 152 151 137 101 89 128 113 114 138 158 127 119 174 236
201 197 181 187 191 189 191 183 184 188 195 195 189 193 190 187 186 190 192 191 195 183 197 188 186 187 188 170 172 179 196 196 181 176 193 218 233 235 182 197 169 172 157 184 175 145 174 147 252 206 131 75 111 133 121 89 116 163 138 133 150 165 214
205 201 185 185 187 183 190 182 187 189 189 192 192 189 191 190 189 187 188 192 191 181 196 188 189 190 186 179 179 190 201 190 195 187 191 205 242 232 208 171 174 155 162 134 150 179 261 266 252 22 115 225 203 352 70 86 165 104 131 118 148 160 172
206 205 195 185 183 177 188 184 187 191 185 191 192 190 192 193 189 172 177 186 198 199 183 186 185 183 176 176 179 181 193 195 184 192 203 198 215 230 195 180 192 180 181 180 160 180 179 168 187 221 225 210 196 177 87 118 57 106 122 145 134 129 127
216 208 205 198 181 184 186 187 188 187 188 186 186 188 192 195 186 180 182 187 186 192 188 189 185 180 177 178 181 185 195 199 189 194 203 204 203 213 200 192 203 186 189 207 139 157 170 186 163 138 165 93 25 348 69 356 61 125 152 142 135 124 119
226 217 210 213 193 189 187 187 185 192 185 183 185 186 189 194 194 183 182 183 182 187 188 188 191 183 172 175 184 187 192 195 196 193 201 213 206 206 199 192 190 190 193 182 166 165 167 131 138 129 133 138 145 223 170 156 168 145 151 150 138 129 126
227 224 220 214 206 196 188 191 187 193 189 187 184 190 185 188 191 179 179 182 182 183 184 186 192 193 167 183 194 189 192 197 194 192 200 216 223 211 195 194 195 195 199 171 163 166 184 158 164 161 124 42 292 246 71 137 196 160 111 160 114 132 134
233 231 230 222 215 194 188 189 193 190 195 188 189 181 181 187 191 188 178 176 182 182 187 188 189 188 175 186 199 198 194 189 193 188 198 212 221 203 202 198 189 185 203 182 158 185 203 189 169 161 140 140 220 267 113 82 289 267 157 137 155 138 146
243 242 240 232 232 217 194 193 193 187 194 186 186 177 182 188 190 187 181 175 176 178 184 185 184 176 172 186 196 193 196 192 196 194 196 211 221 209 205 194 192 203 191 189 178 203 213 174 159 129 129 159 166 159 133 220 198 233 241 164 155 137 166
275 243 240 236 227 232 218 198 196 193 197 191 182 180 178 183 188 190 183 166 175 184 183 181 182 179 187 189 190 194 197 195 198 205 198 208 211 205 198 200 204 201 195 177 198 198 208 177 165 157 153 150 192 185 167 191 188 199 204 216 134 151 172
288 280 253 238 227 224 224 210 195 201 202 194 182 176 180 180 185 193 182 166 174 186 183 174 173 180 186 188 191 195 197 186 187 154 201 138 233 225 206 200 202 210 199 188 178 188 194 176 160 158 152 148 165 176 174 176 179 195 162 218 137 141 176
289 289 285 277 248 229 228 218 212 208 203 200 183 172 180 186 188 190 190 174 182 186 183 177 171 180 181 182 188 192 186 177 171 182 194 184 218 235 223 209 202 209 199 174 168 173 168 182 154 168 165 149 143 241 174 157 156 226 123 174 243 139 172
284 287 304 308 297 274 239 227 230 221 215 206 186 174 185 193 189 189 190 178 178 183 186 180 176 170 176 189 191 187 186 183 176 168 178 188 221 234 226 218 210 203 185 161 170 182 177 173 177 178 186 140 162 207 190 160 174 183 146 180 162 138 164
289 273 256 251 291 310 307 300 265 238 228 222 194 182 186 199 191 191 187 184 178 185 189 182 177 174 183 192 190 187 186 178 168 170 183 198 215 225 214 211 218 199 179 175 182 180 179 176 173 174 150 108 147 194 154 162 158 135 99 200 153 164 189
258 265 264 253 221 222 225 241 277 268 237 227 219 200 185 197 200 188 189 190 183 183 191 185 179 187 187 188 185 185 194 183 181 182 193 198 209 214 201 206 221 198 182 170 184 184 181 185 175 173 157 124 169 179 173 179 171 148 173 151 169 157 197
239 230 249 256 258 246 234 234 239 270 285 272 254 230 197 187 203 194 188 182 189 184 190 193 184 186 189 188 186 188 190 189 189 192 194 197 200 199 189 210 220 191 161 176 188 189 175 187 171 165 135 158 166 166 179 217 167 155 160 162 155 171 189
272 254 235 232 244 248 247 243 243 214 212 272 264 257 220 180 182 203 193 185 183 181 186 188 185 189 189 189 193 185 181 189 192 194 186 184 202 206 198 208 216 177 161 179 185 178 174 169 153 147 146 129 114 179 189 189 210 193 153 145 180 176 189
273 264 247 232 240 252 251 246 253 243 198 209 266 279 256 197 184 200 189 185 187 184 190 188 186 185 187 188 189 183 187 192 191 188 182 194 197 201 211 203 197 179 175 184 185 180 173 172 168 162 167 122 131 166 131 199 113 326 174 155 168 194 69
258 256 245 238 249 241 240 243 247 264 238 201 200 266 279 240 192 204 194 188 184 182 182 179 184 185 183 184 187 186 182 179 182 182 194 206 198 196 203 202 205 190 176 184 186 180 171 173 180 167 144 133 151 147 147 159 159 139 45 104 159 104 32
263 275 272 243 236 250 256 247 278 269 247 234 146 151 266 283 234 206 196 193 183 182 180 178 188 188 186 187 186 181 175 178 186 190 200 201 188 186 197 206 205 212 177 187 183 173 167 172 189 144 156 154 144 137 128 145 169 134 150 182 150 106 159
263 261 269 275 264 220 206 228 222 230 220 247 204 194 235 259 253 229 215 192 170 196 182 181 188 190 187 185 186 179 178 181 187 196 195 197 184 183 192 210 206 215 191 178 181 160 167 170 154 149 176 138 126 123 148 141 143 135 151 177 168 134 244
276 264 267 273 276 262 206 244 255 230 227 223 218 268 278 279 290 269 236 212 199 209 201 188 186 183 185 190 185 180 182 183 189 191 193 197 186 182 190 198 203 207 186 180 170 176 169 164 147 158 155 130 117 127 153 146 133 151 155 162 131 118 168
306 284 261 259 271 269 233 212 233 240 207 193 144 191 193 233 285 319 319 301 341 337 279 172 183 181 180 187 178 181 184 190 188 186 188 190 180 182 197 187 190 205 195 183 171 142 145 161 132 133 155 119 132 145 160 206 160 153 140 148 148 152 169
303 296 284 259 227 259 254 204 204 223 147 117 186 163 156 188 142 138 1 9 3 8 351 7 360 315 198 181 184 185 190 193 186 192 190 184 175 186 198 182 165 180 177 166 160 142 130 117 110 101 99 119 146 162 164 183 181 139 166 166 160 161 175
289 319 280 266 277 249 246 231 190 236 152 137 144 94 73 10 24 351 158 160 143 123 73 57 42 12 326 283 230 187 190 185 171 184 189 180 184 191 187 167 160 164 167 166 153 144 133 119 111 106 103 99 93 81 144 167 183 172 160 160 164 174 178
196 32 337 329 229 223 228 162 183 189 195 155 139 113 107 93 276 196 113 276 171 159 152 177 183 156 146 54 316 284 59 33 81 50 318 252 225 186 171 161 163 174 173 173 161 153 145 123 115 117 112 106 104 107 98 147 193 187 139 145 170 171 191
168 130 50 333 324 254 228 190 188 170 149 156 141 125 130 171 196 156 128 137 190 243 164 134 122 316 217 155 140 323 88 77 322 111 270 284 279 224 173 164 158 167 165 164 171 156 157 143 142 137 139 141 142 124 125 150 187 198 164 167 166 183 185
206 146 142 170 14 340 320 311 301 127 115 93 110 110 114 156 174 138 127 151 201 152 125 139 133 139 320 278 127 173 144 172 173 139 218 191 331 324 317 156 162 166 150 153 167 159 147 158 154 159 157 166 166 159 157 166 196 196 179 183 171 172 170
209 217 170 137 126 73 16 4 328 144 117 128 125 138 185 151 170 153 174 223 183 162 102 118 121 126 137 162 199 150 217 197 146 192 194 108 85 338 314 338 5 42 27 33 4 106 131 133 145 145 176 175 176 169 169 174 178 189 189 190 176 179 186
233 202 179 133 113 112 100 35 336 1 149 151 142 147 150 155 172 167 179 195 168 93 92 84 100 109 108 99 336 167 163 167 194 132 126 123 151 147 285 101 290 143 160 157 166 169 113 89 91 127 223 209 165 159 148 104 115 142 174 202 197 195 176
235 206 129 104 124 135 136 139 120 334 1 66 144 152 133 129 130 124 135 163 113 104 113 114 103 98 97 78 44 44 48 35 43 51 77 91 156 188 208 163 161 175 160 123 164 174 160 131 140 156 206 132 182 184 157 140 142 114 93 72 284 234 199
222 146 112 110 91 79 82 84 96 78 37 292 54 69 110 128 123 121 120 123 141 140 125 115 120 118 121 125 100 78 76 66 51 86 154 181 181 173 185 87 94 111 116 108 124 151 173 174 151 155 146 157 223 202 175 155 161 154 158 153 157 165 134
199 164 117 102 73 64 45 42 29 14 33 43 52 60 50 91 129 132 146 148 154 135 121 119 120 121 128 142 160 107 72 86 124 200 199 110 159 128 105 143 106 71 76 100 111 110 121 261 224 187 159 170 192 205 159 159 175 160 161 175 174 194 203
239 177 127 114 107 80 58 45 31 28 43 50 57 54 41 9 104 137 160 155 150 132 120 117 126 133 139 144 148 126 126 143 191 178 57 59 142 151 113 100 93 73 80 89 120 128 136 175 215 214 234 190 177 164 141 169 181 175 163 175 189 187 200
208 185 165 153 143 135 126 74 56 38 35 47 52 44 29 9 17 63 90 66 95 112 122 124 132 140 139 139 152 188 139 112 46 110 111 114 266 129 121 138 94 73 74 75 79 99 139 180 186 162 203 166 105 131 170 158 159 176 179 171 190 198 190
192 183 158 150 141 143 150 127 108 79 75 46 45 56 33 19 12 356 356 136 123 118 117 117 124 125 144 136 148 132 43 83 80 115 122 135 107 105 46 82 100 99 97 97 95 111 129 144 152 202 207 186 167 171 175 158 147 183 235 211 206 202 196
208 150 145 146 141 143 146 147 142 123 113 83 61 56 56 18 340 328 281 264 143 132 128 125 136 137 147 151 140 114 89 90 72 322 121 127 117 98 86 89 135 172 123 118 116 111 127 144 182 212 211 170 204 194 178 156 158 175 196 214 218 227 225